| time (UTC) | temp C | wind direction | speed KPH | gust KPH | rain 1hr cm | rain 24hr cm | rain mn cm | humidity % | barometer mb |
| 20260505034514 | -17 | 0.0 | 0.0 | 0.00 | 0.00 | 0.00 | 1011.9 | ||
| 20260505033014 | -17 | 0.0 | 0.0 | 0.00 | 0.00 | 0.00 | 1011.9 | ||
| 20260505031517 | -17 | 0.0 | 0.0 | 0.00 | 0.00 | 0.00 | 1011.8 | ||
| 20260505030014 | -17 | 0.0 | 0.0 | 0.00 | 0.00 | 0.00 | 1011.6 | ||
| 20260505024513 | -17 | 0.0 | 0.0 | 0.00 | 0.00 | 0.00 | 1012.1 | ||
| 20260505023016 | -17 | 0.0 | 0.0 | 0.00 | 0.00 | 0.00 | 1012.2 | ||
| 20260505021516 | -17 | 0.0 | 0.0 | 0.00 | 0.00 | 0.00 | 1012.0 | ||
| 20260505020019 | -17 | 0.0 | 0.0 | 0.00 | 0.00 | 0.00 | 1011.9 | ||
| 20260505014519 | -17 | 0.0 | 0.0 | 0.00 | 0.00 | 0.00 | 1011.7 | ||
| 20260505013021 | -17 | 0.0 | 0.0 | 0.00 | 0.00 | 0.00 | 1011.7 | ||
| 20260505011528 | -17 | 0.0 | 0.0 | 0.00 | 0.00 | 0.00 | 1011.6 | ||
| 20260505010019 | -17 | 0.0 | 0.0 | 0.00 | 0.00 | 0.00 | 1011.4 | ||
| 20260505004531 | -17 | 0.0 | 0.0 | 0.00 | 0.00 | 0.00 | 1011.4 | ||
| 20260505003021 | -17 | 0.0 | 0.0 | 0.00 | 0.00 | 0.00 | 1011.0 | ||
| 20260505001522 | -17 | 0.0 | 0.0 | 0.00 | 0.00 | 0.00 | 1010.9 | ||
| 20260505000030 | -17 | 0.0 | 0.0 | 0.00 | 0.00 | 0.00 | 1010.8 | ||
| 20260504234519 | 20 | 169 | 12.9 | 19.3 | 0.00 | 0.00 | 0.00 | 57 | 1010.7 |
| 20260504233022 | 21 | 182 | 12.9 | 16.1 | 0.00 | 0.00 | 0.00 | 54 | 1010.7 |
| 20260504231512 | 21 | 184 | 14.5 | 25.7 | 0.00 | 0.00 | 0.00 | 54 | 1010.7 |
| 20260504230006 | 21 | 190 | 14.5 | 22.5 | 0.00 | 0.00 | 0.00 | 53 | 1010.9 |
| 20260504224521 | 21 | 188 | 19.3 | 27.4 | 0.00 | 0.00 | 0.00 | 56 | 1010.9 |
| 20260504223023 | 21 | 209 | 17.7 | 30.6 | 0.00 | 0.00 | 0.00 | 56 | 1010.9 |
| 20260504221528 | 21 | 200 | 29.0 | 35.4 | 0.00 | 0.00 | 0.00 | 53 | 1010.8 |
| 20260504220014 | 21 | 187 | 20.9 | 29.0 | 0.00 | 0.00 | 0.00 | 55 | 1010.9 |
| 20260504214504 | 20 | 217 | 24.1 | 27.4 | 0.00 | 0.00 | 0.00 | 55 | 1011.0 |
| 20260504213018 | 21 | 198 | 24.1 | 29.0 | 0.00 | 0.00 | 0.00 | 51 | 1011.0 |
| 20260504211525 | 20 | 200 | 19.3 | 27.4 | 0.00 | 0.00 | 0.00 | 54 | 1011.0 |
| 20260504210015 | 20 | 199 | 20.9 | 30.6 | 0.00 | 0.00 | 0.00 | 57 | 1010.9 |
| 20260504204519 | 20 | 205 | 25.7 | 32.2 | 0.00 | 0.00 | 0.00 | 53 | 1011.0 |
| 20260504203008 | 20 | 227 | 25.7 | 38.6 | 0.00 | 0.00 | 0.00 | 56 | 1011.2 |
| 20260504201531 | 20 | 207 | 27.4 | 45.1 | 0.00 | 0.00 | 0.00 | 53 | 1011.4 |
| 20260504200015 | 20 | 200 | 25.7 | 32.2 | 0.00 | 0.00 | 0.00 | 56 | 1011.4 |
| 20260504194518 | 20 | 221 | 29.0 | 33.8 | 0.00 | 0.00 | 0.00 | 55 | 1011.5 |
| 20260504193019 | 19 | 225 | 24.1 | 32.2 | 0.00 | 0.00 | 0.00 | 55 | 1011.7 |
| 20260504191504 | 19 | 218 | 16.1 | 32.2 | 0.00 | 0.00 | 0.00 | 57 | 1011.9 |
| 20260504190007 | 18 | 229 | 24.1 | 27.4 | 0.00 | 0.00 | 0.00 | 55 | 1012.0 |
| 20260504184514 | 18 | 213 | 20.9 | 29.0 | 0.00 | 0.00 | 0.00 | 56 | 1012.3 |
| 20260504183021 | 18 | 211 | 19.3 | 29.0 | 0.00 | 0.00 | 0.00 | 52 | 1012.5 |
| 20260504181527 | 18 | 214 | 29.0 | 33.8 | 0.00 | 0.00 | 0.00 | 57 | 1012.7 |
| 20260504180007 | 18 | 194 | 24.1 | 33.8 | 0.00 | 0.00 | 0.00 | 53 | 1013.2 |
| 20260504174511 | 18 | 225 | 22.5 | 32.2 | 0.00 | 0.00 | 0.00 | 50 | 1013.4 |
| 20260504173023 | 18 | 205 | 20.9 | 33.8 | 0.00 | 0.00 | 0.00 | 56 | 1013.6 |
| 20260504171523 | 18 | 219 | 20.9 | 27.4 | 0.00 | 0.00 | 0.00 | 57 | 1013.7 |
| 20260504081527 | -17 | 0.0 | 0.0 | 0.00 | 0.00 | 0.00 | 1016.3 | ||
| 20260504044537 | -17 | 0.0 | 0.0 | 0.00 | 0.00 | 0.00 | 1016.1 | ||
| 20260504043034 | -17 | 0.0 | 0.0 | 0.00 | 0.00 | 0.00 | 1016.0 | ||
| 20260504041529 | -17 | 0.0 | 0.0 | 0.00 | 0.00 | 0.00 | 1015.9 | ||
| 20260504040034 | -17 | 0.0 | 0.0 | 0.00 | 0.00 | 0.00 | 1015.7 |